SITRO-AIS 5 (KATYS)

Last updated on Sun Dec 14 2025 00:03:50 GMT+0000 (Coordinated Universal Time)

1 57176U 23091L 25347.30701367 .00020621 00000+0 83796-3 0 9995 2 57176 97.5348 44.8231 0013566 42.6670 317.5618 15.24505204135976
UTC large
Height (km)
Speed (km/s)
/
Latitude / Longitude
Inclination (degrees)
Orbital Period (minutes)
Azimuth
Elevation
Range (km)
Doppler Factor

Next 0 passes for location: London (51.5072 / 0.1276)

Sorry there are no passes over London.